• In Romania
  • List of Countries
  • For 7 days
  • Water Temperature
  • Satellite Maps
  • Weather Map
  • Weather Widgets
  • user-avatar
    Login

    Hourly Weather Luch

    Today, 24 September, Monday

    Time Temperature Precipitation Wind Pressure Humidity
    00:00 +9°C° 1.7 mm 5 mps 744 mmHg 85%
    01:00 +9°C° 0 mm 5 mps 744 mmHg 86%
    02:00 +8°C° 0 mm 4 mps 744 mmHg 87%
    03:00 +8°C° 0 mm 4 mps 745 mmHg 88%
    04:00 +8°C° 0 mm 4 mps 745 mmHg 89%
    05:00 +8°C° 0 mm 3 mps 745 mmHg 90%
    06:00 +8°C° 0 mm 3 mps 745 mmHg 92%
    07:00 +9°C° 0 mm 3 mps 745 mmHg 86%
    08:00 +10°C° 0 mm 3 mps 746 mmHg 80%
    09:00 +12°C° 0 mm 3 mps 746 mmHg 75%
    10:00 +13°C° 0 mm 3 mps 746 mmHg 67%
    11:00 +14°C° 0 mm 3 mps 746 mmHg 59%
    12:00 +17°C° 0 mm 3 mps 746 mmHg 51%
    13:00 +17°C° 0 mm 4 mps 746 mmHg 49%
    14:00 +17°C° 0 mm 4 mps 745 mmHg 47%
    15:00 +18°C° 0 mm 4 mps 745 mmHg 45%
    16:00 +17°C° 0 mm 4 mps 744 mmHg 49%
    17:00 +15°C° 0 mm 4 mps 743 mmHg 52%
    18:00 +14°C° 0 mm 4 mps 743 mmHg 56%
    19:00 +14°C° 0 mm 4 mps 743 mmHg 55%
    20:00 +14°C° 0 mm 5 mps 743 mmHg 54%
    21:00 +13°C° 0 mm 6 mps 742 mmHg 53%
    22:00 +13°C° 0 mm 6 mps 742 mmHg 51%
    23:00 +14°C° 0 mm 6 mps 741 mmHg 49%

    Tomorrow, 25 September, Tuesday

    Time Temperature Precipitation Wind Pressure Humidity
    00:00 +14°C° 0 mm 6 mps 741 mmHg 47%
    01:00 +14°C° 0 mm 6 mps 740 mmHg 48%
    02:00 +14°C° 0 mm 7 mps 739 mmHg 49%
    03:00 +14°C° 0 mm 7 mps 739 mmHg 50%
    04:00 +13°C° 0.3 mm 6 mps 739 mmHg 59%
    05:00 +13°C° 0.3 mm 6 mps 738 mmHg 69%
    06:00 +13°C° 0.3 mm 5 mps 738 mmHg 79%
    07:00 +12°C° 1.6 mm 5 mps 738 mmHg 81%
    08:00 +10°C° 1.6 mm 5 mps 738 mmHg 84%
    09:00 +10°C° 1.6 mm 5 mps 739 mmHg 87%
    10:00 +10°C° 1 mm 5 mps 739 mmHg 83%
    11:00 +10°C° 1 mm 5 mps 740 mmHg 79%
    12:00 +10°C° 1 mm 5 mps 740 mmHg 75%
    13:00 +10°C° 0 mm 5 mps 740 mmHg 71%
    14:00 +12°C° 0 mm 5 mps 741 mmHg 68%
    15:00 +12°C° 0 mm 5 mps 741 mmHg 64%
    16:00 +11°C° 0 mm 4 mps 741 mmHg 66%
    17:00 +11°C° 0 mm 4 mps 742 mmHg 68%
    18:00 +10°C° 0 mm 3 mps 742 mmHg 70%
    19:00 +10°C° 0 mm 3 mps 743 mmHg 73%
    20:00 +9°C° 0 mm 3 mps 743 mmHg 76%
    21:00 +8°C° 0 mm 3 mps 744 mmHg 79%
    22:00 +8°C° 0 mm 3 mps 744 mmHg 81%
    23:00 +6°C° 0 mm 4 mps 745 mmHg 82%

    Day after tomorrow, 26 September, Wednesday

    Time Temperature Precipitation Wind Pressure Humidity
    00:00 +6°C° 0 mm 4 mps 745 mmHg 84%
    01:00 +5°C° 0 mm 4 mps 746 mmHg 85%
    02:00 +5°C° 0 mm 4 mps 746 mmHg 85%
    03:00 +5°C° 0 mm 4 mps 747 mmHg 86%
    04:00 +4°C° 0 mm 4 mps 747 mmHg 86%
    05:00 +4°C° 0 mm 4 mps 748 mmHg 87%
    06:00 +4°C° 0 mm 4 mps 749 mmHg 88%
    07:00 +5°C° 0 mm 4 mps 749 mmHg 82%
    08:00 +6°C° 0 mm 4 mps 750 mmHg 77%
    09:00 +7°C° 0 mm 5 mps 751 mmHg 71%
    10:00 +8°C° 0 mm 5 mps 751 mmHg 66%
    11:00 +9°C° 0 mm 5 mps 752 mmHg 61%
    12:00 +10°C° 0 mm 5 mps 752 mmHg 56%
    13:00 +11°C° 0 mm 4 mps 752 mmHg 55%
    14:00 +12°C° 0 mm 4 mps 752 mmHg 53%
    15:00 +12°C° 0 mm 4 mps 753 mmHg 52%
    16:00 +11°C° 0 mm 3 mps 753 mmHg 55%
    17:00 +10°C° 0 mm 3 mps 753 mmHg 58%
    18:00 +9°C° 0 mm 2 mps 753 mmHg 62%
    19:00 +8°C° 0 mm 2 mps 753 mmHg 63%
    20:00 +7°C° 0 mm 2 mps 754 mmHg 65%
    21:00 +7°C° 0 mm 2 mps 754 mmHg 66%
    22:00 +6°C° 0 mm 2 mps 754 mmHg 67%
    23:00 +6°C° 0 mm 2 mps 754 mmHg 68%

    27 September, Thursday

    Time Temperature Precipitation Wind Pressure Humidity
    00:00 +5°C° 0 mm 2 mps 753 mmHg 69%
    01:00 +5°C° 0 mm 2 mps 753 mmHg 70%
    02:00 +5°C° 0 mm 2 mps 753 mmHg 71%
    03:00 +3°C° 0 mm 3 mps 753 mmHg 72%
    04:00 +3°C° 0 mm 3 mps 752 mmHg 73%
    05:00 +3°C° 0 mm 3 mps 752 mmHg 74%
    06:00 +3°C° 0 mm 4 mps 752 mmHg 74%
    07:00 +3°C° 0 mm 5 mps 751 mmHg 68%
    08:00 +4°C° 0 mm 6 mps 751 mmHg 62%
    09:00 +6°C° 0 mm 7 mps 751 mmHg 55%
    10:00 +6°C° 0.1 mm 8 mps 750 mmHg 54%
    11:00 +6°C° 0.1 mm 8 mps 750 mmHg 53%
    12:00 +7°C° 0.1 mm 8 mps 749 mmHg 51%
    13:00 +7°C° 0.2 mm 8 mps 749 mmHg 52%
    14:00 +7°C° 0.2 mm 8 mps 748 mmHg 53%
    15:00 +7°C° 0.2 mm 8 mps 748 mmHg 54%
    16:00 +8°C° 0.1 mm 7 mps 748 mmHg 58%
    17:00 +8°C° 0.1 mm 6 mps 748 mmHg 61%
    18:00 +8°C° 0.1 mm 5 mps 747 mmHg 64%
    19:00 +8°C° 0.1 mm 5 mps 747 mmHg 67%
    20:00 +8°C° 0.1 mm 5 mps 747 mmHg 70%
    21:00 +8°C° 0.1 mm 5 mps 747 mmHg 73%
    22:00 +8°C° 0.2 mm 4 mps 747 mmHg 76%
    23:00 +8°C° 0.2 mm 4 mps 747 mmHg 78%

    28 September, Friday

    Time Temperature Precipitation Wind Pressure Humidity
    00:00 +8°C° 0.2 mm 4 mps 747 mmHg 81%
    01:00 +8°C° 0 mm 4 mps 747 mmHg 82%
    02:00 +8°C° 0 mm 4 mps 747 mmHg 83%
    03:00 +8°C° 0 mm 5 mps 746 mmHg 85%
    04:00 +8°C° 0 mm 5 mps 746 mmHg 85%
    05:00 +8°C° 0 mm 5 mps 746 mmHg 85%
    06:00 +8°C° 0 mm 5 mps 746 mmHg 85%
    07:00 +9°C° 0 mm 6 mps 745 mmHg 81%
    08:00 +10°C° 0 mm 6 mps 745 mmHg 78%
    09:00 +11°C° 0 mm 7 mps 745 mmHg 74%
    10:00 +13°C° 0 mm 8 mps 745 mmHg 70%
    11:00 +15°C° 0 mm 8 mps 744 mmHg 66%
    12:00 +17°C° 0 mm 9 mps 744 mmHg 61%
    13:00 +17°C° 0 mm 9 mps 744 mmHg 60%
    14:00 +18°C° 0 mm 8 mps 744 mmHg 59%
    15:00 +18°C° 0 mm 8 mps 743 mmHg 58%
    16:00 +18°C° 0.1 mm 7 mps 743 mmHg 60%
    17:00 +17°C° 0.1 mm 7 mps 743 mmHg 62%
    18:00 +17°C° 0.1 mm 6 mps 743 mmHg 65%
    19:00 +16°C° 0.2 mm 5 mps 744 mmHg 69%
    20:00 +15°C° 0.2 mm 5 mps 744 mmHg 74%
    21:00 +14°C° 0.2 mm 4 mps 745 mmHg 78%
    22:00 +14°C° 0 mm 4 mps 745 mmHg 81%
    23:00 +13°C° 0 mm 3 mps 746 mmHg 84%

    29 September, Saturday

    Time Temperature Precipitation Wind Pressure Humidity
    00:00 +13°C° 0 mm 2 mps 746 mmHg 86%
    01:00 +12°C° 0 mm 2 mps 747 mmHg 87%
    02:00 +10°C° 0 mm 2 mps 747 mmHg 88%
    03:00 +10°C° 0 mm 1 mps 747 mmHg 90%
    04:00 +10°C° 0 mm 1 mps 748 mmHg 89%
    05:00 +9°C° 0 mm 1 mps 748 mmHg 89%
    06:00 +9°C° 0 mm 1 mps 748 mmHg 89%
    07:00 +10°C° 0 mm 1 mps 748 mmHg 82%
    08:00 +11°C° 0 mm 1 mps 749 mmHg 76%
    09:00 +12°C° 0 mm 1 mps 749 mmHg 69%
    10:00 +13°C° 0 mm 1 mps 749 mmHg 62%
    11:00 +15°C° 0 mm 1 mps 749 mmHg 56%
    12:00 +16°C° 0 mm 1 mps 749 mmHg 50%
    13:00 +16°C° 0 mm 1 mps 749 mmHg 49%
    14:00 +16°C° 0 mm 1 mps 749 mmHg 47%
    15:00 +16°C° 0 mm 1 mps 749 mmHg 46%
    16:00 +15°C° 0 mm 2 mps 749 mmHg 50%
    17:00 +14°C° 0 mm 2 mps 749 mmHg 54%
    18:00 +13°C° 0 mm 3 mps 749 mmHg 57%
    19:00 +12°C° 0.1 mm 3 mps 750 mmHg 60%
    20:00 +11°C° 0.1 mm 4 mps 750 mmHg 63%
    21:00 +10°C° 0.1 mm 5 mps 750 mmHg 65%
    22:00 +9°C° 1 mm 6 mps 750 mmHg 70%
    23:00 +8°C° 1 mm 6 mps 751 mmHg 74%
    Show more